Atlantic - Newfoundland: Past 24 Hour Conditions

 

Argentia

04:30 AM NST 23 November 2014
This table is a summary of hourly weather conditions for the past 24 hours.
Date / Time
(NST)
Wind(knots) Conditions Visibility(km) Pressure(kPa) Air tempC) Relative humidity(%) Dew pointC) Wind Chill
23 November 2014
4:30 WSW 26 gust 31 N/A N/A 100.6 3 79 -1 *
3:30 WSW 25 N/A N/A 100.7 2 74 -2 *
2:30 WSW 30 gust 37 N/A N/A 100.7 2 75 -2 *
1:30 WSW 29 gust 36 N/A N/A 100.7 1 78 -2 *
0:30 SW 29 gust 37 N/A N/A 100.8 1 79 -2 *
22 November 2014
23:30 WSW 27 gust 33 N/A N/A 100.8 1 78 -3 *
22:30 WSW 30 gust 37 N/A N/A 100.8 1 78 -3 *
21:30 W 19 gust 32 N/A N/A 100.9 -1 80 -4 -8
20:30 W 27 gust 35 N/A N/A 100.8 1 67 -5 *
19:30 WSW 24 gust 31 N/A N/A 100.9 0 64 -6 *
18:30 W 22 gust 29 N/A N/A 100.8 0 54 -8 *
17:30 W 19 gust 30 N/A N/A 100.8 0 57 -8 -7
16:30 W 20 gust 31 N/A N/A 100.7 0 55 -8 -8
15:30 W 22 gust 30 N/A N/A 100.7 0 56 -8 -8
14:30 WNW 23 gust 29 N/A N/A 100.6 0 60 -7 -8
13:30 W 23 gust 32 N/A N/A 100.6 0 58 -8 -8
12:30 W 21 gust 33 N/A N/A 100.5 -1 57 -8 -9
11:30 WNW 24 gust 31 N/A N/A 100.6 -1 56 -9 -9
10:30 WNW 23 gust 32 N/A N/A 100.6 -2 62 -8 -10
9:30 WNW 20 gust 28 N/A N/A 100.5 -2 62 -8 -10
8:30 W 21 gust 31 N/A N/A 100.5 -2 57 -9 -10
7:30 WSW 23 gust 31 N/A N/A 100.4 -2 61 -8 -10
6:30 WNW 18 gust 26 N/A N/A 100.3 -1 64 -7 -9
5:30 WNW 21 gust 26 N/A N/A 100.2 -1 62 -8 -9
4:30 WNW 19 gust 25 N/A N/A 100.1 -1 62 -7 -8
 
Map of Atlantic - Newfoundland marine weather areas Southwestern Grand Banks - 44138 Banquereau - 44139 Tail of the Bank - 44140 Nickerson Bank - 44251 Northeast Burgeo Bank - 44255 Blanc-Sablon Airport Cap Whittle Chevery Natashquan Airport Heath Point Miscou Island Grand Étang Ingonish Beach North Mountain St.Paul Island J.A. Douglas McCurdy Sydney Airport Charlottetown Airport East Point North Cape Argentia Bonavista Burgeo Cape Race Corner Brook Daniel's Harbour Englee Ferolle Point La Scie Port aux Basques Rocky Harbour Sagona Island St. Anthony Airport St. John's Int'l Airport St. Lawrence Stephenville Airport Twillingate Winterland Wreckhouse Cartwright Airport Mary's Harbour Grates Cove Pool's Island Marticot Island Long Pond Îles de la Madeleine Airport
Legend: buoyBuoy land stationLand Station